www.pogodaiklimat.ru

Погода и климат >> Архив погоды >> Сирия >> Damascus


АРХИВ ПОГОДЫ в Damascus

Время (UTC), дата Ветер
(напр.,м/с)
 
Видим.   Явления Облачность Т
(С)
Тd
(С)
f
(%)
Тe
(С)
Тes
(С)
Комфортность P
(гПа)
Po
(гПа)
Тmin
(С)
Tmax
(С)
R
(мм)
R24
(мм)
S
(см)
12 11.12 штиль 0 20 км ясно +15.8 -5.8 22 +16 +21 тепло 1025.3 954.5
15 11.12 штиль 0 20 км ясно +13.6 -0.3 38 +14 +14 тепло 1026.0 953.6
18 11.12 штиль 0 20 км ясно +5.0 -5.5 47 +5 +5 по сезону 1029.3 954.9 +16.5
21 11.12 штиль 0 20 км ясно +2.0 -10.5 39 +2 +2 по сезону 1027.8 955.0
00 12.12 штиль 0 20 км ясно +2.0 -10.5 39 +2 +2 по сезону 1027.2 955.0
03 12.12 штиль 0 20 км ясно +0.4 -10.5 44 0 0 по сезону 1026.9 954.3
06 12.12 штиль 0 10 км 4/0
[Ci fib]
+2.0 -7.9 48 +2 +3 по сезону 1028.8 955.1 0.0
09 12.12 штиль 0 15 км 4/0
[Ci fib]
+1.6 -4.5 64 +1 +9 опасность
простуды
1026.9 954.4
12 12.12 н/о +30.8
15 12.12 штиль 0 15 км 4/0
[Ci fib]
+14.2 -5.2 26 +14 +14 тепло 1023.6 951.3
21 12.12 СВ 2 15 км 3/0
[Ci fib]
+5.6 -3.6 52 +4 +4 по сезону 1023.0 951.2
00 13.12 З 2 15 км ясно +5.2 -7.8 38 +3 +3 по сезону 1021.2 949.8
03 13.12 штиль 0 15 км ясно +3.6 -7.7 43 +3 +3 по сезону 1018.5 946.5
06 13.12 штиль 0 15 км 6/0
[Ac trans]
+2.2 -9.1 43 +2 +3 по сезону 1021.5 948.8 +0.6
09 13.12 штиль 0 15 км 3/3
[Cb calv Ci ing]
+14.0 -6.0 24 +14 +20 тепло 1019.7 948.2
12 13.12 ЮЗ 3 15 км ясно +22.0 +7.1 38 +23 +26 комфорт 1015.3 945.1
15 13.12 ЮЗ 2 15 км ясно +17.0 +6.4 50 +17 +17 тепло 1015.3 944.3
18 13.12 ЮЗ 3 15 км ясно +12.4 +7.6 73 +11 +11 тепло 1017.9 945.9 +22.2
21 13.12 штиль 0 15 км ясно +9.6 +6.6 82 +9 +9 тепло 1017.3 946.5
00 14.12 штиль 0 6000 м дымка ясно +7.6 +8 +8 тепло 1016.9 946.9
03 14.12 штиль 0 200 м туман на расстоянии ясно +2.4 +1.7 95 +1 +1 по сезону 1017.1 945.7
06 14.12 штиль 0 2000 м дымка {туман} ясно +3.4 +1.9 90 +2 +4 по сезону 1019.5 947.6 +0.2
09 14.12 З 3 15 км ясно +15.8 +8.6 62 +15 +21 тепло 1018.6 947.9
12 14.12 СЗ 2 15 км ясно +18.8 +5.9 43 +20 +23 тепло 1015.9 945.5
15 14.12 СВ 3 15 км ясно +14.3 +4.7 52 +14 +14 тепло 1017.2 945.5
18 14.12 Ю 5 15 км ясно +11.6 +6.2 69 +9 +9 тепло 1018.1 946.2 +19.0
00 15.12 З 3 15 км ясно +5.0 +2.6 84 +2 +2 по сезону 1017.4 946.7
03 15.12 С 1 100 м туман на расстоянии ясно +4.0 +4.0 100 +2 +2 по сезону 1018.4 946.9
06 15.12 СЗ 2 100 м туман на расстоянии ясно +5.2 +4.7 97 +2 +4 по сезону 1020.5 948.6 +2.0
09 15.12 штиль 0 5000 м дымка {туман} ясно +12.2 +7.4 72 +12 +20 тепло 1021.1 949.7
12 15.12 штиль 0 15 км ясно +17.2 +7.6 53 +17 +22 тепло 1019.9 948.9
15 15.12 штиль 0 15 км ясно +13.8 +7.0 64 +14 +14 тепло 1020.8 949.0
18 15.12 штиль 0 15 км ясно +7.2 +2.5 72 +7 +7 по сезону 1022.5 950.0 +18.0
00 16.12 штиль 0 15 км ясно +2.2 +1.1 92 +1 +1 по сезону 1022.9 951.2
03 16.12 штиль 0 15 км ясно +0.2 -2.8 80 -1 -1 по сезону 1023.8 951.4
06 16.12 штиль 0 100 м туман на расстоянии ясно +2.0 +2.0 100 +1 +2 по сезону 1026.1 952.9 0.0
09 16.12 штиль 0 15 км ясно +13.0 +7.0 67 +13 +21 тепло 952.7
15 16.12 штиль 0 15 км ясно +13.6 +6.4 62 +13 +13 тепло 1022.5 950.2
18 16.12 штиль 0 15 км ясно +8.0 +0.7 60 +8 +8 тепло 1024.5 951.5 +18.0
21 16.12 штиль 0 15 км ясно +7.0 +2.3 72 +6 +6 по сезону 1023.4 951.8
00 17.12 штиль 0 15 км ясно +3.6 -0.5 75 +3 +3 по сезону 1023.3 951.8
03 17.12 штиль 0 15 км ясно +1.4 -2.7 74 +1 +1 по сезону 1023.4 951.4
06 17.12 штиль 0 15 км ясно +3.0 +0.3 82 +2 +4 по сезону 1024.2 952.4 +0.4
09 17.12 штиль 0 15 км ясно +13.4 +4.0 53 +13 +22 тепло 1023.7 952.1
12 17.12 штиль 0 15 км 8/4 900 м
[Sc Ac und]
+17.2 +5.1 45 +17 +19 тепло 1021.0 949.6
15 17.12 штиль 0 15 км 8/4 900 м
[Sc Ac und]
+15.0 +4.6 50 +15 +15 тепло 1021.1 949.1

 

Местоположение метеостанции Damascus (Сирия): широта 33.42 долгота 36.52 высота над уровнем моря 609 м.

В архиве по умолчанию представлена погода в Damascus за последнюю неделю. Архивные данные за месяц целиком и за предыдущие месяцы, начиная с января 2011 года, Вы можете получить, выбрав интересующий диапазон дат из раскрывающегося списка и нажав кнопку "Ввод!".

Внимание! Время в таблицах - всемирное. Для получения местного времени необходимо прибавить поправку, которая в Damascus равна 2 ч.

Смотрите также архив погоды в соседних городах и на ближайших метеорологических станциях:

Погода в Nabk (Сирия) (70 км)
Погода в Haouch-Al-Oumara (Ливан) (76 км)
Погода в Daraa (Сирия) (99 км)
Погода в Beyrouth (Ливан) (105 км)
Погода в Safed (Израиль) (107 км)
Погода в Irbed (Иордания) (115 км)
Погода в Al-Mafraq (Иордания) (119 км)
Погода в Tripoli (Ливан) (131 км)
Погода в Safawi (Иордания) (147 км)
Погода в Safita (Сирия) (160 км)

Пояснения к столбцам:

Ветер - указаны скорость ветра в м/с - средняя за 10 мин, порывы в срок и между сроками (в фигурных скобках) и направление, откуда дует ветер: С - северный, СВ - северо-восточный, В - восточный, ЮВ - юго-восточный, Ю - южный, ЮЗ - юго-западный, З - западный, СЗ - северо-западный.
Видимость - горизонтальная дальность видимости в метрах или километрах. При видимости от 1 до 10 км при отсутствии осадков обычно наблюдается дымка, при ухудшении видимости до 1 км и менее - туман. В сухую погоду видимость может ухудшаться дымом, пылью или мглою.
Явления - указаны атмосферные явления, наблюдавшиеся в срок или в последний час перед сроком; фигурными скобками обозначены явления, наблюдавшиеся между сроками (за 1-3 часа до срока); квадратными скобками обозначены град или гололедные отложения с указанием их диаметра в мм.
Облачность - указаны через наклонную черту общая и нижняя облачность в баллах и высота нижней границы облаков в метрах; квадратными скобками обозначены формы облаков: Ci - перистые, Cs - перисто-слоистые, Cc - перисто-кучевые, Ac - высококучевые, As - высокослоистые, Sc - слоисто-кучевые, Ns - слоисто-дождевые, Cu - кучевые, Cb - кучево-дождевые. Подробнее классификацию облаков см. в Атласе облаков (PDF).
T - Температура воздуха - температура, измеренная на высоте 2 м над землей.
Td - Температура точки росы - температура, при понижении до которой содержащийся в воздухе водяной пар достигнет насыщения.
f - Относительная влажность воздуха - влажноcть воздуха, измеренная на высоте 2 м над землей.
Te - Эффективная температура - температура, которую ощущает одетый по сезону человек в тени. Характеристика душности погоды. При расчете учитывается влияние влажности воздуха и скорости ветра на теплоощущения человека.
Tes - Эффективная температура на солнце - температура, которую ощущает человек, с поправкой на солнечный нагрев. Характеристика знойности погоды. Зависит от высоты солнца над горизонтом, облачности и скорости ветра. Ночью, в пасмурную погоду, а также при ветре 12 м/с и более поправка равна нулю.
P - Атмосферное давление - приведенное к уровню моря атмосферное давление.
Po - Атмосферное давление - измеренное на уровне метеостанции атмосферное давление.
Tmin - Минимальная температура - минимум температуры воздуха на высоте 2 м над землей.
Tmax - Максимальная температура - максимум температуры воздуха на высоте 2 м над землей.
R - Количество осадков - Количество выпавших осадков за период времени, мм. При наведении курсора мыши на число - период времени, за который выпало указанное количество осадков.
R24 - Количество осадков - Количество выпавших осадков за 24 часа, мм.
S - Снежный покров - Высота снежного покрова, см. При наведении курсора мыши на число - состояние снежного покрова и степень покрытия местности в баллах.